Tracking 27419 objects as of 10-Jun-2023
HD Live streaming from Space Station
objects crossing your sky now

STARLINK-1517

Track STARLINK-1517 now!
10-day predictions
STARLINK-1517 is classified as:


NORAD ID: 45787
Int'l Code: 2020-038BK
Perigee: 553.2 km
Apogee: 555.4 km
Inclination: 53.1 °
Period: 95.6 minutes
Semi major axis: 6925 km
RCS: Unknown
Launch date: June 13, 2020
Source: United States (US)
Launch site: AIR FORCE EASTERN TEST RANGE (AFETR)
Your satellite tracking list
Your tracking list is empty




NASA's NSSDC Master Catalog

Two Line Element Set (TLE):
1 45787U 20038BK  23160.89376218  .00018543  00000-0  12598-2 0  9998
2 45787  53.0547  22.8332 0001592  82.0146 278.1024 15.06420632165460
Source of the keplerian elements: AFSPC